Flag for Brazil Weather past 2 weeks in Araguaína, Tocantins, Brazil

Now
82 °F

Sunny.


Feels Like: 85 °F
Forecast: 70 / 92 °F
Wind: 2 mph from East

Location: Maraba Airport

Current Time: Jul 31, 2014 at 9:35:15 AM

Latest Report: Jul 31, 2014 at 9:00 AM


Visibility: 10 mi

Pressure: 29.98 "Hg

Humidity: 62%

Dew point: 68 °F

Location of AraguaínaLocation

Historic Weather in Araguaína — Graph

°F

Araguaína temperature yesterday

Maximum temperature yesterday: 97 °F (at 3:00 PM)
Minimum temperature yesterday: 72 °F (at 4:00 AM)
Average temperature yesterday: 82 °F

Past Weeks' High & Low Weather Summary

 TemperatureHumidityPressure
High99 °F (Jul 28, 2:00 PM)100% (Jul 16, 8:00 AM)30.07 "Hg (Jul 16, 8:00 AM)
Low70 °F (Jul 25, 6:00 AM)28% (Jul 30, 4:00 PM)29.83 "Hg (Jul 25, 4:00 PM)
Average81 °F74%29.95 "Hg
* Reported Jul 16 8:00 AM — Jul 31 8:00 AM, Araguaína, Weather by CustomWeather, © 2014

Note: Actual official high and low records may vary slightly from our data, if they occured in-between our weather recording intervals... More about our weather records

Advertising

Araguaína weather history for previous 24 hours

 ConditionsComfort  
Time TempWeatherWind HumidityBarometerVisibility
8:00 AM
Jul 31
77 °FSunny.1 mph74%29.98 "Hg10 mi
7:00 AM72 °FSunny.3 mph88%29.95 "Hg10 mi
6:00 AM70 °FFog.1 mph94%29.95 "Hg3 mi
5:00 AM72 °FFog.1 mph88%29.92 "Hg3 mi
4:00 AM72 °FFog.1 mph88%29.92 "Hg3 mi
3:00 AM70 °FClear.1 mph88%29.95 "Hg10 mi
2:00 AM73 °FClear.7 mph78%29.95 "Hg10 mi
1:00 AM72 °FClear.1 mph88%29.95 "Hg10 mi
12:00 AM72 °FClear.No wind78%29.95 "Hg10 mi
11:00 PM
Jul 30
73 °FClear.1 mph83%29.95 "Hg10 mi
10:00 PM75 °FClear.No wind74%29.95 "Hg10 mi
9:00 PM75 °FClear.No wind69%29.92 "Hg10 mi
8:00 PM77 °FClear.No wind61%29.89 "Hg10 mi
7:00 PM79 °FClear.No wind58%29.89 "Hg10 mi
6:00 PM88 °FSunny.3 mph38%29.89 "Hg10 mi
5:00 PM95 °FSunny.6 mph30%29.86 "Hg10 mi
4:00 PM97 °FPassing clouds.6 mph28%29.86 "HgN/A
3:00 PM97 °FPassing clouds.5 mph30%29.89 "HgN/A
2:00 PM95 °FSunny.9 mph32%29.92 "Hg10 mi
1:00 PM95 °FPassing clouds.9 mph32%29.95 "HgN/A
12:00 PM95 °FPassing clouds.6 mph36%29.95 "HgN/A
11:00 AM91 °FScattered clouds.8 mph44%30.01 "HgN/A
10:00 AM88 °FPassing clouds.5 mph62%30.01 "HgN/A
9:00 AM82 °FHaze.2 mph74%30.04 "Hg3 mi
Weather by CustomWeather, © 2014

See weather overviewHow to use our weather pages